SCP
1 2 1 1 1 0 1 1 1 0 0 1 1 1 1 1 1 1 0 0 0 0 0 0 0 0 0 0 0 0 0 0
0 1 0 -0 1 1 1 0 1 0 1 1 1 2 2 1 1 1 1 1 1 0 0 0 0 0 0 0 0 0 0 0
0 2 2 2 2 1 1 1 0 -0 -0 0 1 2 2 2 1 1 1 1 1 0 1 0 0 0 0 0 0 0 0 0
0 0 1 1 0 1 1 1 2 1 1 0 0 1 1 2 2 2 1 1 1 0 0 0 1 1 0 0 0 0 0 0
0 0 0 -0 0 1 1 2 2 2 1 1 1 1 1 1 1 3 1 2 1 0 0 0 0 1 1 1 0 0 0 0
0 0 0 0 0 0 2 2 2 2 2 2 1 1 1 1 1 1 2 3 2 1 0 0 0 1 0 0 0 0 0 0
0 0 0 0 0 0 1 0 2 3 2 4 4 2 3 2 1 1 1 1 2 1 1 1 1 1 1 0 0 0 1 0
0 0 0 0 0 0 1 -0 2 2 2 3 3 2 1 1 1 1 1 1 1 2 1 1 1 2 2 1 1 1 0 0
0 0 0 0 0 1 0 0 1 2 1 1 1 1 1 1 1 1 0 0 0 1 2 1 2 2 1 1 2 1 1 0
0 0 0 0 0 0 0 0 0 0 1 1 1 1 1 1 1 1 1 1 1 2 2 2 1 1 0 0 0 0 0 0
0 0 0 0 0 1 0 0 1 0 0 1 1 1 1 1 1 1 1 1 2 2 2 3 2 1 1 0 0 0 0 0
0 0 0 0 0 0 0 0 0 0 0 2 1 1 1 1 1 1 0 0 0 -0 0 0 1 1 1 1 1 1 1 0
0 0 0 0 0 0 0 0 0 0 0 0 0 0 0 0 0 0 0 0 0 1 1 1 1 1 1 2 2 2 2 1
0 0 0 0 0 0 0 0 0 0 0 0 0 0 0 0 0 0 0 0 0 0 0 1 2 3 3 3 2 2 2 3
0 0 0 0 0 0 0 0 0 0 0 0 0 0 0 0 0 0 0 0 0 0 0 0 0 1 2 3 4 4 4 6
0 0 0 0 0 0 0 0 0 0 0 0 0 0 0 0 0 0 0 0 0 0 0 0 0 0 0 2 2 2 4 3
0 0 0 0 0 0 0 0 0 0 0 0 0 0 0 0 0 0 0 0 0 0 0 0 0 0 0 0 1 3 3 3
0 0 0 0 0 0 0 0 0 0 0 0 0 0 0 0 0 0 0 0 0 0 0 0 0 0 0 0 1 2 3 2
0 0 0 0 0 0 0 0 0 0 0 0 0 0 0 0 0 0 0 0 0 0 0 0 0 0 0 0 0 0 1 1
0 0 0 0 0 0 0 0 0 0 0 0 0 0 0 0 0 0 0 0 0 0 0 0 0 0 0 0 0 0 1 1
Wind_Speed_500mb
17 18 21 29 35 37 40 47 53 55 54 52 50 48 47 46 43 39 37 40 43 43 43 41 39 37 36 37 37 39 40 37
33 22 13 6 16 31 36 45 52 54 52 54 54 55 53 53 51 48 47 46 46 44 43 43 42 41 41 41 43 43 42 42
35 23 14 5 8 15 32 38 51 57 60 61 61 61 59 56 54 55 54 53 50 46 47 47 47 46 46 46 47 47 48 48
30 25 9 5 10 25 33 39 44 54 62 65 68 68 60 58 58 61 56 53 57 57 54 52 51 50 50 50 50 51 52 54
49 46 38 33 30 28 39 42 48 54 63 68 66 66 64 61 64 66 58 57 59 59 58 59 57 55 56 53 53 53 55 58
29 48 36 43 57 45 23 46 56 59 66 73 74 73 68 72 64 65 44 60 61 63 63 63 66 60 59 59 60 58 57 59
29 53 59 63 61 53 40 57 56 66 66 70 77 79 70 70 68 71 50 38 64 63 59 59 57 56 62 64 64 61 60 61
37 49 52 45 34 41 41 63 59 58 63 71 76 75 73 70 70 71 64 69 67 55 55 61 46 42 41 49 47 47 47 49
35 44 56 52 41 40 32 40 53 54 60 65 69 72 72 65 65 63 68 69 65 65 51 41 44 43 39 43 48 40 32 41
6 30 35 44 52 48 55 60 52 44 42 46 55 53 54 55 65 62 62 64 64 65 53 45 43 46 45 43 42 62 84 79
14 15 23 31 34 41 34 29 20 13 13 21 28 35 40 38 40 42 40 49 53 49 44 39 40 46 53 53 50 71 64 79
31 26 19 16 13 14 14 10 9 9 11 12 13 17 19 20 20 20 22 24 25 28 32 37 45 48 55 56 49 57 61 56
41 40 40 36 30 26 21 18 15 14 11 9 10 10 13 14 20 25 27 28 28 30 34 37 44 49 51 49 51 55 57 62
38 35 30 29 24 22 18 14 10 8 7 10 13 19 25 30 35 41 47 48 48 46 47 48 51 53 53 52 53 53 56 58
33 28 23 19 13 8 3 6 7 10 16 21 25 29 35 41 46 51 56 59 61 61 61 62 63 62 59 62 63 65 66 67
26 23 17 12 7 6 9 13 18 25 31 35 38 43 49 52 58 64 67 72 76 78 80 79 75 71 70 67 68 69 69 71
18 17 15 13 14 18 22 27 32 38 43 48 53 59 64 69 73 78 82 86 88 90 92 93 91 88 79 74 67 72 74 74
14 16 17 20 24 28 33 38 44 48 53 57 62 66 71 74 79 82 85 88 91 96 97 97 96 93 90 84 79 69 74 73
16 19 24 28 32 37 41 45 48 50 51 54 59 62 64 66 69 72 76 79 80 83 84 85 86 85 86 87 85 77 74 75
18 26 30 34 38 42 44 47 47 45 49 53 55 56 57 60 63 65 66 68 67 66 63 64 68 71 69 72 72 67 73 79
Wind_Direction_500mb
227 210 227 222 215 216 218 216 208 206 204 205 207 210 213 216 218 219 219 219 222 224 227 227 225 224 227 230 229 230 234 236
234 205 184 185 253 244 230 224 219 214 215 216 218 220 223 222 223 222 222 225 226 231 234 236 237 233 232 234 236 237 240 242
232 208 172 219 275 262 256 241 225 221 221 220 221 227 227 231 231 231 229 229 234 235 237 240 244 246 243 241 243 245 246 247
188 161 258 302 286 280 274 252 245 231 230 228 228 229 231 235 239 236 236 237 239 239 241 241 244 246 251 252 252 254 256 257
226 238 246 274 276 284 291 273 257 245 238 240 240 238 234 236 238 242 238 245 246 247 251 253 251 254 253 255 258 259 264 269
222 218 234 256 265 256 280 299 275 260 248 241 239 240 238 244 244 240 252 258 255 254 256 258 258 258 261 262 265 265 267 272
228 215 218 254 251 235 266 293 283 266 260 253 249 242 246 252 254 252 235 261 256 259 265 271 272 270 272 269 268 273 276 281
232 216 223 224 218 254 249 270 279 270 257 252 256 252 248 246 247 253 255 252 256 248 276 285 266 263 265 261 265 273 289 294
233 219 222 219 211 208 228 240 254 262 260 243 248 251 251 253 247 251 259 258 251 262 272 272 269 260 255 247 239 245 281 302
160 208 217 219 210 217 225 238 246 254 255 254 249 255 261 258 257 260 256 248 258 271 274 271 272 267 270 247 258 278 286 287
163 184 195 205 215 223 231 233 244 253 257 247 249 257 264 265 266 266 266 261 264 267 272 265 268 269 270 280 284 276 286 268
102 120 147 162 158 142 180 177 172 199 215 205 222 258 269 276 270 271 279 285 288 286 286 283 279 277 275 278 273 256 267 260
107 106 110 114 120 126 127 137 153 157 166 171 185 210 235 252 266 273 273 274 280 289 292 289 288 288 285 279 274 267 267 267
102 103 106 103 105 112 119 129 135 155 201 234 250 257 263 269 272 275 275 274 274 272 270 269 272 272 270 270 267 262 261 261
100 102 99 101 106 114 165 236 248 246 249 254 260 265 266 266 270 271 270 271 270 270 267 264 264 263 266 265 260 258 256 256
95 94 84 69 43 346 309 286 272 271 274 276 277 277 277 277 275 275 273 271 270 269 269 271 268 264 262 260 261 258 257 255
64 56 44 20 352 330 314 301 293 287 284 280 278 277 276 275 274 274 275 273 274 273 270 269 269 268 264 257 252 252 256 255
33 15 360 344 330 318 310 304 300 297 294 290 287 284 283 282 282 281 281 280 278 276 274 271 269 267 266 262 256 250 247 248
9 352 342 334 325 318 312 307 305 303 301 300 299 298 297 295 294 293 292 289 286 283 280 276 270 264 260 258 257 250 247 246
354 342 333 331 328 324 321 317 315 314 311 308 306 306 305 303 301 298 295 292 289 289 284 280 276 271 264 259 255 252 248 245
Wind_Speed_850mb
17 18 21 29 35 37 40 47 53 55 54 52 50 48 47 46 43 39 37 40 43 43 43 41 39 37 36 37 37 39 40 37
33 22 13 6 16 31 36 45 52 54 52 54 54 55 53 53 51 48 47 46 46 44 43 43 42 41 41 41 43 43 42 42
35 23 14 5 8 15 32 38 51 57 60 61 61 61 59 56 54 55 54 53 50 46 47 47 47 46 46 46 47 47 48 48
30 25 9 5 10 25 33 39 44 54 62 65 68 68 60 58 58 61 56 53 57 57 54 52 51 50 50 50 50 51 52 54
49 46 38 33 30 28 39 42 48 54 63 68 66 66 64 61 64 66 58 57 59 59 58 59 57 55 56 53 53 53 55 58
29 48 36 43 57 45 23 46 56 59 66 73 74 73 68 72 64 65 44 60 61 63 63 63 66 60 59 59 60 58 57 59
29 53 59 63 61 53 40 57 56 66 66 70 77 79 70 70 68 71 50 38 64 63 59 59 57 56 62 64 64 61 60 61
37 49 52 45 34 41 41 63 59 58 63 71 76 75 73 70 70 71 64 69 67 55 55 61 46 42 41 49 47 47 47 49
35 44 56 52 41 40 32 40 53 54 60 65 69 72 72 65 65 63 68 69 65 65 51 41 44 43 39 43 48 40 32 41
6 30 35 44 52 48 55 60 52 44 42 46 55 53 54 55 65 62 62 64 64 65 53 45 43 46 45 43 42 62 84 79
14 15 23 31 34 41 34 29 20 13 13 21 28 35 40 38 40 42 40 49 53 49 44 39 40 46 53 53 50 71 64 79
31 26 19 16 13 14 14 10 9 9 11 12 13 17 19 20 20 20 22 24 25 28 32 37 45 48 55 56 49 57 61 56
41 40 40 36 30 26 21 18 15 14 11 9 10 10 13 14 20 25 27 28 28 30 34 37 44 49 51 49 51 55 57 62
38 35 30 29 24 22 18 14 10 8 7 10 13 19 25 30 35 41 47 48 48 46 47 48 51 53 53 52 53 53 56 58
33 28 23 19 13 8 3 6 7 10 16 21 25 29 35 41 46 51 56 59 61 61 61 62 63 62 59 62 63 65 66 67
26 23 17 12 7 6 9 13 18 25 31 35 38 43 49 52 58 64 67 72 76 78 80 79 75 71 70 67 68 69 69 71
18 17 15 13 14 18 22 27 32 38 43 48 53 59 64 69 73 78 82 86 88 90 92 93 91 88 79 74 67 72 74 74
14 16 17 20 24 28 33 38 44 48 53 57 62 66 71 74 79 82 85 88 91 96 97 97 96 93 90 84 79 69 74 73
16 19 24 28 32 37 41 45 48 50 51 54 59 62 64 66 69 72 76 79 80 83 84 85 86 85 86 87 85 77 74 75
18 26 30 34 38 42 44 47 47 45 49 53 55 56 57 60 63 65 66 68 67 66 63 64 68 71 69 72 72 67 73 79
Wind_Direction_850mb
227 210 227 222 215 216 218 216 208 206 204 205 207 210 213 216 218 219 219 219 222 224 227 227 225 224 227 230 229 230 234 236
234 205 184 185 253 244 230 224 219 214 215 216 218 220 223 222 223 222 222 225 226 231 234 236 237 233 232 234 236 237 240 242
232 208 172 219 275 262 256 241 225 221 221 220 221 227 227 231 231 231 229 229 234 235 237 240 244 246 243 241 243 245 246 247
188 161 258 302 286 280 274 252 245 231 230 228 228 229 231 235 239 236 236 237 239 239 241 241 244 246 251 252 252 254 256 257
226 238 246 274 276 284 291 273 257 245 238 240 240 238 234 236 238 242 238 245 246 247 251 253 251 254 253 255 258 259 264 269
222 218 234 256 265 256 280 299 275 260 248 241 239 240 238 244 244 240 252 258 255 254 256 258 258 258 261 262 265 265 267 272
228 215 218 254 251 235 266 293 283 266 260 253 249 242 246 252 254 252 235 261 256 259 265 271 272 270 272 269 268 273 276 281
232 216 223 224 218 254 249 270 279 270 257 252 256 252 248 246 247 253 255 252 256 248 276 285 266 263 265 261 265 273 289 294
233 219 222 219 211 208 228 240 254 262 260 243 248 251 251 253 247 251 259 258 251 262 272 272 269 260 255 247 239 245 281 302
160 208 217 219 210 217 225 238 246 254 255 254 249 255 261 258 257 260 256 248 258 271 274 271 272 267 270 247 258 278 286 287
163 184 195 205 215 223 231 233 244 253 257 247 249 257 264 265 266 266 266 261 264 267 272 265 268 269 270 280 284 276 286 268
102 120 147 162 158 142 180 177 172 199 215 205 222 258 269 276 270 271 279 285 288 286 286 283 279 277 275 278 273 256 267 260
107 106 110 114 120 126 127 137 153 157 166 171 185 210 235 252 266 273 273 274 280 289 292 289 288 288 285 279 274 267 267 267
102 103 106 103 105 112 119 129 135 155 201 234 250 257 263 269 272 275 275 274 274 272 270 269 272 272 270 270 267 262 261 261
100 102 99 101 106 114 165 236 248 246 249 254 260 265 266 266 270 271 270 271 270 270 267 264 264 263 266 265 260 258 256 256
95 94 84 69 43 346 309 286 272 271 274 276 277 277 277 277 275 275 273 271 270 269 269 271 268 264 262 260 261 258 257 255
64 56 44 20 352 330 314 301 293 287 284 280 278 277 276 275 274 274 275 273 274 273 270 269 269 268 264 257 252 252 256 255
33 15 360 344 330 318 310 304 300 297 294 290 287 284 283 282 282 281 281 280 278 276 274 271 269 267 266 262 256 250 247 248
9 352 342 334 325 318 312 307 305 303 301 300 299 298 297 295 294 293 292 289 286 283 280 276 270 264 260 258 257 250 247 246
354 342 333 331 328 324 321 317 315 314 311 308 306 306 305 303 301 298 295 292 289 289 284 280 276 271 264 259 255 252 248 245